{"data":{"norad_id":63254,"epoch":"2026-05-25T04:49:48.245376Z","epoch_age_seconds":53584,"freshness":"FRESH","line1":"1 63254U 25052AW  26145.20125284  .00004949  00000+0  29500-3 0  9990","line2":"2 63254  97.6962  46.5219 0000918 316.3403  43.7754 15.11647471 65790","mean_motion":15.11647471,"eccentricity":9.18e-5,"inclination_deg":97.6962,"raan_deg":46.5219,"arg_perigee_deg":316.3403,"mean_anomaly_deg":43.7754,"bstar":0.000295,"rev_number":6579,"period_min":95.260305568956,"perigee_km":530.54108233334,"apogee_km":531.80963208213,"semimajor_km":6909.3123572077,"source":"CELESTRAK","updated_at":"2026-05-25T13:38:03.608083Z"}}